Showing default

NISAR, 65053

Orbit data source: Space-Track

NISAR, 65053 is an Indian payload satellite in SSO that was launched on Wed, 30 Jul 2025 UTC via a GSLV MK II launch vehicle from the Sirharikota (SRI). Payload-class satellites include a variety of spacecraft equipped with specific instruments for various scientific and technological missions. These include communications satellites like Starlink; space stations such as the ISS; scientific satellites like the Hubble; Earth observation satellites from companies like Planet Labs, Umbra, and HawkEye 360; GPS; miniature CubeSats for education and research; and military/defense satellites.

Loading next visibility...
Identifier
65053, 2025-163A
Orbit
SSO
Country
Flag of ININ / IND
Related business
Manufacturer
ISRO
Mission
Operational Civil Radar Imaging
Bus & Motor
I3K, ISRO LAM
Mass
2,393 kg wet, ~2,300 kg dry
Launch date (UTC)
2025-07-30 (9 months ago)
Launch vehicle
GSLV MK II
Launch site
Sirharikota (SRI)
Object type
Payload
Rocket body
Debris
Shape & HBR
Box + 2 Pan, 14.3 m
Radar Cross Section
10.461 m², Large (>1 m²)

Expand to show TLE details & history
Last TLE update: 12 hours ago

TLE from 12 hours ago
0 NISAR
1 65053U 25163A   26131.12459045 -.00000149  00000-0 -31758-4 0  9993
2 65053  98.4054 319.3305 0001163  88.3629 271.7694 14.42503789 41040
Epoch: 2026-05-11T02:59Z
TLE epoch observation values (Epoch: 2026-05-11T02:59:24.614Z)
Latitude
-0.00005°
Longitude
45.56013°
Altitude
753.167 km
Speed
7.478 km/s
True Right ascension
21h 17m 19s
True Declination
0° 00' 00"
Sunlit
Object was in daylight at epoch
Visualization orbit readout
Latitude
Unknown
Longitude
Unknown
Altitude
Unknown
Speed
Unknown
Apparent Right ascension
Unknown
Apparent Declination
Unknown
Sunlit
N/A
Visualization observer readout
Local Sidereal Time
23:11:36
Azimuth
Unknown
Elevation
Unknown
Doppler factor
Unknown
Orbital elements
Apogee altitude
748.181 km
Perigee altitude
746.523 km
Semi-major axis
7,125.489 km
Eccentricity
0.00012
Inclination
98.4054°
RAAN
319.3305°
Arg. of periapsis
88.3629°
True anomaly
271.75608°
Mean anomaly
271.7694°
Eccentric anomaly
271.76274°
Mean motion
3.60845 °/min
Orbital period
99.77 mins
BSTAR
-0.000031758
Loading maneuver chart data...
Computing Atmospheric mass density...
Loading historical data...
Loading historical data...
Loading historical data...
Loading historical data...
Loading historical data...
Loading historical data...
Loading historical data...
Other satellites on launch #163 in the year 2025 (2025-07-30 UTC)

Documentation

Showing up to 5 results
|